• In Moldova, Republic
  • List of Countries
  • For 7 days
  • Water Temperature
  • Satellite Maps
  • Weather Map
  • Weather Widgets
  • user-avatar
    Login

    Hourly Weather Kaprun

    Today, 21 September, Thursday

    Time Temperature Precipitation Wind Pressure Humidity
    00:00 -5°C° 0 mm 2 mps 597 mmHg 93%
    01:00 -5°C° 0 mm 2 mps 597 mmHg 92%
    02:00 -6°C° 0 mm 2 mps 597 mmHg 90%
    03:00 -6°C° 0 mm 2 mps 597 mmHg 89%
    04:00 -6°C° 0 mm 2 mps 597 mmHg 87%
    05:00 -5°C° 0 mm 2 mps 597 mmHg 85%
    06:00 -5°C° 0 mm 2 mps 597 mmHg 82%
    07:00 -4°C° 0 mm 2 mps 597 mmHg 80%
    08:00 -2°C° 0 mm 2 mps 598 mmHg 76%
    09:00 +2°C° 0 mm 2 mps 599 mmHg 73%
    10:00 +5°C° 0 mm 1 mps 600 mmHg 69%
    11:00 +5°C° 0 mm 2 mps 600 mmHg 68%
    12:00 +6°C° 0 mm 2 mps 600 mmHg 67%
    13:00 +7°C° 0 mm 2 mps 600 mmHg 66%
    14:00 +6°C° 0 mm 2 mps 600 mmHg 67%
    15:00 +6°C° 0 mm 2 mps 599 mmHg 68%
    16:00 +6°C° 0 mm 2 mps 599 mmHg 69%
    17:00 +4°C° 0 mm 2 mps 598 mmHg 76%
    18:00 +2°C° 0 mm 1 mps 597 mmHg 82%
    19:00 0°C° 0 mm 1 mps 597 mmHg 89%
    20:00 0°C° 0 mm 1 mps 597 mmHg 87%
    21:00 -1°C° 0 mm 1 mps 597 mmHg 85%
    22:00 -1°C° 0 mm 1 mps 597 mmHg 83%
    23:00 -3°C° 0 mm 2 mps 597 mmHg 79%

    Tomorrow, 22 September, Friday

    Time Temperature Precipitation Wind Pressure Humidity
    00:00 -3°C° 0 mm 2 mps 597 mmHg 75%
    01:00 -3°C° 0 mm 2 mps 597 mmHg 72%
    02:00 -3°C° 0 mm 2 mps 597 mmHg 70%
    03:00 -3°C° 0 mm 2 mps 597 mmHg 68%
    04:00 -3°C° 0 mm 2 mps 597 mmHg 66%
    05:00 -2°C° 0 mm 2 mps 598 mmHg 66%
    06:00 -2°C° 0 mm 2 mps 598 mmHg 65%
    07:00 -1°C° 0 mm 2 mps 598 mmHg 65%
    08:00 +4°C° 0 mm 1 mps 599 mmHg 65%
    09:00 +7°C° 0 mm 1 mps 601 mmHg 64%
    10:00 +9°C° 0 mm 1 mps 602 mmHg 64%
    11:00 +10°C° 0 mm 1 mps 602 mmHg 63%
    12:00 +11°C° 0 mm 1 mps 602 mmHg 63%
    13:00 +11°C° 0 mm 1 mps 602 mmHg 62%
    14:00 +11°C° 0 mm 1 mps 602 mmHg 65%
    15:00 +10°C° 0 mm 1 mps 602 mmHg 67%
    16:00 +9°C° 0 mm 1 mps 601 mmHg 70%
    17:00 +7°C° 0 mm 1 mps 601 mmHg 76%
    18:00 +5°C° 0 mm 1 mps 600 mmHg 82%
    19:00 +3°C° 0 mm 1 mps 599 mmHg 88%
    20:00 +3°C° 0 mm 1 mps 600 mmHg 88%
    21:00 +2°C° 0 mm 1 mps 600 mmHg 88%
    22:00 +2°C° 0 mm 1 mps 600 mmHg 88%
    23:00 +2°C° 0 mm 1 mps 600 mmHg 87%

    Day after tomorrow, 23 September, Saturday

    Time Temperature Precipitation Wind Pressure Humidity
    00:00 +2°C° 0 mm 1 mps 600 mmHg 86%
    01:00 +2°C° 0 mm 1 mps 600 mmHg 86%
    02:00 +2°C° 0 mm 1 mps 600 mmHg 85%
    03:00 +2°C° 0 mm 1 mps 599 mmHg 85%
    04:00 +2°C° 0 mm 1 mps 599 mmHg 85%
    05:00 +2°C° 0 mm 1 mps 600 mmHg 84%
    06:00 +3°C° 0 mm 1 mps 600 mmHg 84%
    07:00 +3°C° 0 mm 1 mps 600 mmHg 83%
    08:00 +5°C° 0 mm 1 mps 601 mmHg 79%
    09:00 +7°C° 0 mm 1 mps 602 mmHg 75%
    10:00 +8°C° 0 mm 0 mps 602 mmHg 70%
    11:00 +9°C° 0.1 mm 0 mps 602 mmHg 68%
    12:00 +10°C° 0.1 mm 1 mps 602 mmHg 67%
    13:00 +10°C° 0.1 mm 1 mps 602 mmHg 65%
    14:00 +10°C° 0.3 mm 1 mps 602 mmHg 70%
    15:00 +9°C° 0.3 mm 1 mps 601 mmHg 76%
    16:00 +9°C° 0.3 mm 1 mps 601 mmHg 81%
    17:00 +6°C° 0.3 mm 0 mps 600 mmHg 86%
    18:00 +4°C° 0.3 mm 0 mps 600 mmHg 90%
    19:00 +3°C° 0.3 mm 0 mps 599 mmHg 95%
    20:00 +2°C° 0.1 mm 0 mps 599 mmHg 95%
    21:00 +2°C° 0.1 mm 0 mps 599 mmHg 95%
    22:00 +2°C° 0.1 mm 0 mps 599 mmHg 95%
    23:00 +3°C° 0 mm 1 mps 599 mmHg 95%

    24 September, Sunday

    Time Temperature Precipitation Wind Pressure Humidity
    00:00 +3°C° 0 mm 1 mps 599 mmHg 95%
    01:00 +2°C° 0 mm 1 mps 599 mmHg 95%
    02:00 +2°C° 0 mm 1 mps 598 mmHg 95%
    03:00 +2°C° 0 mm 1 mps 598 mmHg 95%
    04:00 +1°C° 0 mm 1 mps 598 mmHg 95%
    05:00 +2°C° 0 mm 1 mps 598 mmHg 94%
    06:00 +2°C° 0 mm 1 mps 598 mmHg 94%
    07:00 +2°C° 0 mm 1 mps 599 mmHg 93%
    08:00 +4°C° 0 mm 1 mps 600 mmHg 87%
    09:00 +6°C° 0 mm 1 mps 600 mmHg 81%
    10:00 +8°C° 0 mm 1 mps 601 mmHg 75%
    11:00 +9°C° 0.1 mm 1 mps 601 mmHg 72%
    12:00 +9°C° 0.1 mm 1 mps 602 mmHg 69%
    13:00 +10°C° 0.1 mm 1 mps 602 mmHg 66%
    14:00 +9°C° 0.2 mm 1 mps 601 mmHg 70%
    15:00 +9°C° 0.2 mm 1 mps 601 mmHg 73%
    16:00 +7°C° 0.2 mm 2 mps 601 mmHg 77%
    17:00 +7°C° 0.1 mm 1 mps 600 mmHg 83%
    18:00 +5°C° 0.1 mm 1 mps 600 mmHg 89%
    19:00 +3°C° 0.1 mm 1 mps 599 mmHg 95%
    20:00 +2°C° 0 mm 1 mps 599 mmHg 96%
    21:00 +2°C° 0 mm 1 mps 599 mmHg 96%
    22:00 +1°C° 0 mm 1 mps 599 mmHg 96%
    23:00 +1°C° 0 mm 1 mps 598 mmHg 94%

    25 September, Monday

    Time Temperature Precipitation Wind Pressure Humidity
    00:00 +1°C° 0 mm 1 mps 598 mmHg 92%
    01:00 0°C° 0 mm 1 mps 598 mmHg 90%
    02:00 0°C° 0 mm 1 mps 598 mmHg 88%
    03:00 0°C° 0 mm 1 mps 597 mmHg 86%
    04:00 0°C° 0 mm 1 mps 597 mmHg 85%
    05:00 0°C° 0 mm 1 mps 597 mmHg 84%
    06:00 +1°C° 0 mm 1 mps 598 mmHg 84%
    07:00 +1°C° 0 mm 1 mps 598 mmHg 83%
    08:00 +4°C° 0 mm 1 mps 599 mmHg 76%
    09:00 +7°C° 0 mm 1 mps 600 mmHg 68%
    10:00 +9°C° 0 mm 1 mps 601 mmHg 60%
    11:00 +10°C° 0 mm 1 mps 601 mmHg 57%
    12:00 +11°C° 0 mm 1 mps 601 mmHg 53%
    13:00 +12°C° 0 mm 1 mps 601 mmHg 50%
    14:00 +11°C° 0 mm 1 mps 600 mmHg 53%
    15:00 +10°C° 0 mm 1 mps 600 mmHg 57%
    16:00 +10°C° 0 mm 1 mps 599 mmHg 60%
    17:00 +7°C° 0 mm 1 mps 598 mmHg 71%
    18:00 +5°C° 0 mm 1 mps 597 mmHg 81%
    19:00 +1°C° 0 mm 0 mps 596 mmHg 92%
    20:00 +2°C° 0 mm 1 mps 596 mmHg 92%
    21:00 +2°C° 0 mm 1 mps 596 mmHg 92%
    22:00 +2°C° 0 mm 1 mps 596 mmHg 92%
    23:00 +2°C° 0 mm 1 mps 596 mmHg 92%

    26 September, Tuesday

    Time Temperature Precipitation Wind Pressure Humidity
    00:00 +2°C° 0 mm 1 mps 596 mmHg 91%
    01:00 +1°C° 0 mm 2 mps 597 mmHg 91%
    02:00 +2°C° 0 mm 1 mps 596 mmHg 91%
    03:00 +2°C° 0 mm 1 mps 596 mmHg 91%
    04:00 +2°C° 0 mm 1 mps 596 mmHg 92%
    05:00 +2°C° 0 mm 1 mps 596 mmHg 91%
    06:00 +2°C° 0 mm 1 mps 596 mmHg 90%
    07:00 +2°C° 0 mm 1 mps 596 mmHg 90%
    08:00 +4°C° 0 mm 1 mps 597 mmHg 82%
    09:00 +6°C° 0 mm 1 mps 598 mmHg 73%
    10:00 +9°C° 0 mm 1 mps 599 mmHg 65%
    11:00 +9°C° 0 mm 1 mps 599 mmHg 62%
    12:00 +9°C° 0 mm 2 mps 600 mmHg 59%
    13:00 +10°C° 0 mm 2 mps 600 mmHg 57%
    14:00 +9°C° 0.1 mm 2 mps 599 mmHg 61%
    15:00 +9°C° 0.1 mm 2 mps 599 mmHg 65%
    16:00 +8°C° 0.1 mm 2 mps 599 mmHg 69%
    17:00 +6°C° 0.1 mm 2 mps 598 mmHg 77%
    18:00 +4°C° 0.1 mm 2 mps 598 mmHg 85%
    19:00 +3°C° 0.1 mm 1 mps 597 mmHg 94%
    20:00 +2°C° 0 mm 2 mps 597 mmHg 94%
    21:00 +2°C° 0 mm 2 mps 597 mmHg 94%
    22:00 +2°C° 0 mm 2 mps 597 mmHg 94%
    23:00 +1°C° 0 mm 2 mps 597 mmHg 94%
    Show more